This is the latest recevied weather packets stored in our database for station/object SP9KB-13. If no packets are shown the sender has not sent any weather packets the latest 10 day(s).
| Time | Temp. | Humidity | Pressure | Rain* | Wind** | Luminosity | Snow |
|---|---|---|---|---|---|---|---|
| 1777884788 | 20° C | 41% | 999.3 hPa | 0 mm | - | - | - |
| 1777884488 | 19.44° C | 41% | 999.5 hPa | 0 mm | - | - | - |
| 1777884187 | 20° C | 43% | 999.5 hPa | 0 mm | - | - | - |
| 1777883887 | 20° C | 40% | 999.6 hPa | 0 mm | - | - | - |
| 1777883586 | 19.44° C | 41% | 999.6 hPa | 0 mm | - | - | - |
| 1777883285 | 19.44° C | 42% | 999.5 hPa | 0 mm | - | - | - |
| 1777882985 | 19.44° C | 42% | 999.5 hPa | 0 mm | - | - | - |
| 1777882684 | 18.89° C | 43% | 999.6 hPa | 0 mm | - | - | - |
| 1777882384 | 18.89° C | 44% | 999.6 hPa | 0 mm | - | - | - |
| 1777882083 | 18.33° C | 44% | 999.5 hPa | 0 mm | - | - | - |
| 1777881782 | 18.33° C | 43% | 999.6 hPa | 0 mm | - | - | - |
| 1777881482 | 17.78° C | 47% | 999.5 hPa | 0 mm | - | - | - |
| 1777881181 | 18.33° C | 45% | 999.6 hPa | 0 mm | - | - | - |
| 1777880880 | 17.78° C | 47% | 999.7 hPa | 0 mm | - | - | - |
| 1777880580 | 18.33° C | 44% | 999.7 hPa | 0 mm | - | - | - |
| 1777880279 | 18.33° C | 43% | 999.5 hPa | 0 mm | - | - | - |
| 1777879979 | 17.22° C | 45% | 999.5 hPa | 0 mm | - | - | - |
| 1777879678 | 17.78° C | 46% | 999.6 hPa | 0 mm | - | - | - |
| 1777879378 | 17.78° C | 45% | 999.5 hPa | 0 mm | - | - | - |
| 1777879077 | 17.22° C | 47% | 999.6 hPa | 0 mm | - | - | - |
| 1777878776 | 16.67° C | 45% | 999.4 hPa | 0 mm | - | - | - |
| 1777878476 | 16.67° C | 46% | 999.5 hPa | 0 mm | - | - | - |
| 1777878175 | 16.67° C | 47% | 999.4 hPa | 0 mm | - | - | - |
| 1777877875 | 17.22° C | 47% | 999.5 hPa | 0 mm | - | - | - |
| 1777877573 | 16.67° C | 49% | 999.5 hPa | 0 mm | - | - | - |
* Rain latest hour (hover to see other rain measurements)
** Current wind speed in m/s (hover to see current wind gust speed)